Regional Weather Roundup
Issued by NWS

Home | Current Version | Previous Version | Text Only | Print | Product List | Glossary On
Versions: 1 2 3 4 5 6 7 8 9 10 11 12 13 14 15 16 17 18 19 20 21 22 23 24 25 26 27 28 29 30 31 32 33 34 35 36 37 38 39 40 41 42 43 44 45 46 47 48 49 50
000
ASUS44 KFWD 252103
RWRTX
NORTH TEXAS HOURLY WEATHER ROUNDUP
NATIONAL WEATHER SERVICE FORT WORTH TX
400 PM CDT TUE APR 25 2017

NOTE: "FAIR" INDICATES FEW OR NO CLOUDS BELOW 12,000 FEET WITH NO
SIGNIFICANT WEATHER AND/OR OBSTRUCTIONS TO VISIBILITY.

TXZ118-119-252200-
DALLAS/FORT WORTH METROPLEX

CITY           SKY/WX    TMP DP  RH WIND       PRES   REMARKS
DFW AIRPORT    PTSUNNY   84  67  56 S21G33    29.44F
DALLAS LOVE    PTSUNNY   85  65  51 S22G31    29.46F
FTW MEACHAM    CLOUDY    86  68  54 S20G28    29.44F
DAL-EXECUTIVE  SUNNY     83  67  58 S15G28    29.47F
FTW-ALLIANCE   PTSUNNY   84  67  56 S15G28    29.44F
FTW-NAS-JRB    MOSUNNY   86  67  52 S22G30    29.45F
FTW-SPINKS     MOSUNNY   84  66  54 S21G26    29.48F
ARLINGTON      SUNNY     83  65  54 S23G29    29.46F
GRAND PRAIRIE  SUNNY     84  66  54 S14G28    29.48F
ADDISON        MOSUNNY   82  64  54 S21G30    29.48F
MESQUITE       PTSUNNY   81  66  61 SE20G26   29.49F
LANCASTER      MOSUNNY   83  67  59 S18G30    29.50F
$$

TXZ091>094-102>105-117-120-121-131>134-252200-
NORTH CENTRAL TEXAS

CITY           SKY/WX    TMP DP  RH WIND       PRES   REMARKS
SHRMAN/DENISON MOSUNNY   82  66  57 S23       29.47S
GAINESVILLE    MOSUNNY   81  66  61 S12       29.45F
BOWIE          PTSUNNY   84  61  45 S9G16     29.41F
BRIDGEPORT     MOSUNNY   85  59  40 S14       29.43F
DECATUR        CLOUDY    87  59  39 S15G21    29.43F
DENTON         MOSUNNY   84  69  60 S17       29.44F
MCKINNEY       CLOUDY    82  68  62 S23G33    29.46F
BONHAM         CLOUDY    79  66  65 S21G29    29.48F
GREENVILLE     PTSUNNY   84  66  54 S21G29    29.50F
ROCKWALL       PTSUNNY   81  67  61 S28G36    29.49F
TERRELL        MOSUNNY   82  66  58 S18G29    29.50F
WAXAHACHIE     SUNNY     82  67  62 S17G30    29.50F
CLEBURNE       SUNNY     82  70  65 S23G31    29.48F
GRANBURY       SUNNY     90  64  41 SE15G23   29.45F HX  91
$$

TXZ083>090-098>101-113>116-127>130-139>142-154-155-252200-
WESTERN NORTH TEXAS

CITY           SKY/WX    TMP DP  RH WIND       PRES   REMARKS
WICHITA FALLS  CLOUDY    93  41  16 W12G17    29.37F
WF-KICKAPOO    CLOUDY    93  40  15 W8        29.39F
VERNON         SUNNY     94  22   7 W10       29.38F
ABILENE        CLOUDY    93  36  13 SW20G29   29.43F
GRAHAM         CLOUDY    94  56  27 S16       29.39F HX  93
BRECKENRIDGE   PTSUNNY   96  44  16 SW15      29.41F HAZE    HX  92
CISCO          PTSUNNY   91  50  24 SW13G20   29.46F
RANGER         MOSUNNY   87  56  34 S8G16     29.46F
MINERAL WELLS  MOSUNNY   92  55  28 S16       29.41F HX  90
STEPHENVILLE   SUNNY     88  61  39 S13G18    29.48F
COMANCHE       SUNNY     90  58  34 SW14G20   29.47F
COLEMAN        MOSUNNY   91  42  18 SW13G20   29.47F
$$

TXZ143>147-156>162-174-175-252200-
CENTRAL TEXAS

CITY           SKY/WX    TMP DP  RH WIND       PRES   REMARKS
WACO           MOSUNNY   83  68  60 S20       29.50F
WACO-TSTC      MOSUNNY   84  68  58 S22G28    29.51F
WACO-MCGREGOR  MOSUNNY   84  69  60 S20G26    29.51F
HILLSBORO      MOSUNNY   82  68  62 S23G30    29.50F
MEXIA          MOSUNNY   82  67  61 S16G32    29.52F
HEARNE         PTSUNNY   83  69  63 S18G26    29.55F
CAMERON        CLOUDY    84  69  59 S14G26    29.52F
TEMPLE         PTSUNNY   82  69  64 S24G30    29.51F
KILLEEN        SUNNY     85  67  54 SE20G25   29.50F
KILLEEN-SKYLRK MOSUNNY   85  68  56 S16G23    29.51F
FORT HOOD      SUNNY     84  67  54 S18       29.48F
GATESVILLE     SUNNY     84  66  54 S15G24    29.51F
HAMILTON       SUNNY     88  65  46 S15G23    29.50F
LAMPASAS       SUNNY     85  69  58 S10G20    29.50F
$$

TXZ095>097-106>112-122>126-135>138-148>153-164>167-252200-
EAST TEXAS

CITY           SKY/WX    TMP DP  RH WIND       PRES   REMARKS
PARIS          CLOUDY    81  66  61 S18G26    29.51F
SULPHUR SPRNGS CLOUDY    81  65  58 S15G24    29.53F
MOUNT PLEASANT MOSUNNY   83  64  53 S15G24    29.54F
GILMER         MOSUNNY   82  65  56 S12G23    29.54F
MINEOLA        PTSUNNY   81  66  61 S15G21    29.52F
TYLER          MOSUNNY   82  66  58 S20G29    29.54F
LONGVIEW       PTSUNNY   81  66  60 S20       29.55F
MARSHALL       MOSUNNY   78  63  58 S16       29.59F
ATHENS         CLOUDY    81  64  57 S20G25    29.52F
PALESTINE      PTSUNNY   81  68  64 S13G24    29.57F
JACKSONVILLE   MOSUNNY   79  66  64 S14G21    29.60F
HENDERSON      PTSUNNY   82  64  54 S17G23    29.58F
CENTER         MOCLDY    83  68  60 S13G24    29.62F
NACOGDOCHES    PTSUNNY   82  66  57 SE22      29.57F
LUFKIN         PTSUNNY   83  67  58 S15G22    29.60F
$$

SUPPLEMENTAL OBSERVATIONS (CENTRAL)

CITY           SKY/WX    TMP DP  RH WIND       PRES   REMARKS
$$

SUPPLEMENTAL OBSERVATIONS (WEST)

CITY           SKY/WX    TMP DP  RH WIND       PRES   REMARKS
$$

SUPPLEMENTAL OBSERVATIONS (EAST)

CITY           SKY/WX    TMP DP  RH WIND       PRES   REMARKS
$$

SUPPLEMENTAL OBSERVATIONS ARE A COLLECTION OF AUTOMATED INSTRUMENTS
THAT ARE MAINTAINED BY A VARIETY OF FEDERAL AND STATE AGENCIES.
CERTAIN ELEMENTS...SUCH AS HUMIDITY VALUES AND SUSTAINED WIND
SPEEDS...MAY BE APPROXIMATED.




USA.gov is the U.S. government's official web portal to all federal, state and local government web resources and services.